{"data":{"norad_id":62124,"intl_designator":"2024-222L","name":"STARLINK-32608","alt_names":[],"object_type":"PAYLOAD","status":"ACTIVE","operator":null,"country":"US","launch_date":"2024-11-27","launch_site_code":"AFETR","launch_vehicle":null,"mission":null,"orbit_class":"UNKNOWN","rcs_meters":null,"size_class":null,"mass_kg":null,"dimensions":null,"purposes":["comms"],"wikipedia_slug":null,"has_3d_model":false,"image_url":null,"decayed_at":null,"tle_current":{"epoch":"2026-05-25T01:57:57.244320Z","epoch_age_seconds":74864,"freshness":"FRESH","line1":"1 62124U 24222L   26145.08191255  .00017134  00000+0  63047-3 0  9994","line2":"2 62124  43.0010  64.6363 0000984 273.4635  86.6104 15.27591695 84427","mean_motion":15.27591695,"eccentricity":9.84e-5,"inclination_deg":43.001,"raan_deg":64.6363,"arg_perigee_deg":273.4635,"mean_anomaly_deg":86.6104,"bstar":0.00063047,"rev_number":8442,"period_min":94.266027022358,"perigee_km":482.33893995982,"apogee_km":483.68921449181,"semimajor_km":6861.1510772258,"source":"CELESTRAK","updated_at":"2026-05-25T13:38:19.564569Z"}}}